This is the latest recevied weather packets stored in our database for station/object K3JSE-2. If no packets are shown the sender has not sent any weather packets the latest 1 day(s).
| Time | Temp. | Humidity | Pressure | Rain* | Wind** | Luminosity | Snow |
|---|---|---|---|---|---|---|---|
| 1778005243 | 26.67° C | 38% | 1009.4 hPa | 0 mm | 0.89 m/s, 239° | - | - |
| 1778004953 | 26.67° C | 37% | 1009.4 hPa | 0 mm | 1.79 m/s, 287° | - | - |
| 1778004810 | 26.67° C | 39% | 1009.5 hPa | 0 mm | 1.79 m/s, 186° | - | - |
| 1778004698 | 26.67° C | 39% | 1009.4 hPa | 0 mm | 0.89 m/s, 0° | - | - |
| 1778004413 | 26.67° C | 39% | 1009.6 hPa | 0 mm | 1.79 m/s, 250° | - | - |
| 1778004143 | 27.22° C | 40% | 1009.5 hPa | 0 mm | 0 m/s | - | - |
| 1778004082 | 27.22° C | 43% | 1009.6 hPa | 0 mm | 1.34 m/s, 271° | - | - |
| 1778003868 | 26.67° C | 39% | 1009.7 hPa | 0 mm | 0.89 m/s, 243° | - | - |
| 1778003573 | 26.67° C | 39% | 1009.7 hPa | 0 mm | 1.79 m/s, 283° | - | - |
| 1778003409 | 26.67° C | 39% | 1009.6 hPa | 0 mm | 1.79 m/s, 300° | - | - |
| 1778003293 | 26.67° C | 40% | 1009.6 hPa | 0 mm | 0.89 m/s, 159° | - | - |
| 1778003021 | 26.67° C | 44% | 1009.8 hPa | 0 mm | 2.24 m/s, 249° | - | - |
| 1778002770 | 26.11° C | 42% | 1009.8 hPa | 0 mm | 0.45 m/s, 286° | - | - |
| 1778002740 | 26.11° C | 42% | 1009.8 hPa | 0 mm | 0.45 m/s, 295° | - | - |
| 1778002533 | 26.11° C | 44% | 1009.8 hPa | 0 mm | 0 m/s | - | - |
| 1778002278 | 26.11° C | 44% | 1009.9 hPa | 0 mm | 0 m/s | - | - |
| 1778002013 | 26.11° C | 44% | 1010 hPa | 0 mm | 0.45 m/s, 217° | - | - |
| 1778001997 | 26.11° C | 44% | 1010 hPa | 0 mm | 0 m/s | - | - |
| 1778001727 | 26.11° C | 43% | 1009.9 hPa | 0 mm | 2.68 m/s, 218° | - | - |
| 1778001456 | 26.11° C | 45% | 1010.1 hPa | 0 mm | 0.45 m/s, 279° | - | - |
| 1778001285 | 26.11° C | 45% | 1010.1 hPa | 0 mm | 0 m/s | - | - |
| 1778001158 | 26.11° C | 44% | 1010.1 hPa | 0 mm | 0.45 m/s, 240° | - | - |
| 1778000873 | 26.11° C | 46% | 1010.2 hPa | 0 mm | 0.45 m/s, 246° | - | - |
| 1778000608 | 26.11° C | 46% | 1010.2 hPa | 0 mm | 1.34 m/s, 267° | - | - |
| 1778000544 | 26.11° C | 46% | 1010.2 hPa | 0 mm | 0 m/s | - | - |
* Rain latest hour (hover to see other rain measurements)
** Current wind speed in m/s (hover to see current wind gust speed)